[[{"header":{"parameterUnit":"m.s-1","parameterCategory":1,"la1":30.2991,"la2":30.254,"lo1":-89.0895,"lo2":-89.0444,"dy":0.0017,"dx":0.0017,"nx":28,"ny":28,"refTime":"2025-06-21T21:00:00:Z","depth":0,"parameterNumber":2,"parameterNumberName":"U-component_of_WINDS"},"data":[0,0,0,0,0,0,0,0,0,0,0,0,0,0,0,0,0,0,0,0,0,0,0,0,0,0,0,0,0,0,0,0,0,0,0,0,0,0,0,0,0,0,0,0,0,0,0,0,0,0,0,0,0,0,0,0,0,0,-2.4988,-2.4987,0,-2.4945,-2.4945,-2.4944,-2.4872,-2.4871,-2.4869,-2.4868,-2.4825,-2.4825,-2.4825,0,0,0,0,0,0,0,0,0,0,0,0,0,-2.5007,-2.5007,-2.4988,-2.4987,-2.4987,-2.4946,-2.4945,-2.4944,-2.4872,-2.487,-2.4869,-2.4867,-2.4825,-2.4825,-2.4825,0,0,0,0,0,0,0,0,0,0,0,0,0,-2.4985,-2.5007,-2.4988,-2.4946,-2.4941,-2.4946,-2.4945,-2.4944,-2.4872,-2.487,-2.4868,-2.4867,-2.4824,-2.4825,-2.4825,-2.4867,0,0,-2.4825,-2.4825,0,0,0,0,0,0,0,0,-2.4986,-2.4984,-2.4952,-2.4949,-2.4944,-2.4912,-2.4936,-2.4918,-2.4873,-2.4899,-2.4868,-2.4866,-2.4855,-2.4853,-2.4849,-2.4865,-2.4863,-2.4825,-2.4825,-2.4826,-2.4826,0,0,0,0,0,0,0,-2.4988,-2.4986,-2.4971,-2.4952,-2.4947,-2.4929,-2.4924,-2.4932,-2.4889,-2.4896,-2.4891,-2.4887,-2.4853,-2.4849,-2.4848,-2.4862,-2.4825,-2.4825,-2.4826,-2.4826,-2.4911,-2.4914,0,0,0,0,0,0,-2.4996,-2.4987,-2.4972,-2.497,-2.496,-2.4931,-2.4924,-2.4924,-2.4889,-2.4881,-2.4889,-2.4884,-2.485,-2.4848,-2.4846,-2.4893,-2.4826,-2.4826,-2.4826,-2.4909,-2.4912,-2.4914,0,0,0,0,0,0,-2.4996,-2.4995,-2.4974,-2.4977,-2.4973,-2.4932,-2.4933,-2.4924,-2.4921,-2.4883,-2.4875,-2.4893,-2.4848,-2.4846,-2.4862,-2.4891,-2.4826,-2.4826,-2.4907,-2.491,-2.4913,-2.4989,0,0,0,0,0,0,-2.4997,-2.4995,-2.5011,-2.4978,-2.4973,-2.4991,-2.4934,-2.4925,-2.4922,-2.4915,-2.4885,-2.4878,-2.4847,-2.4863,-2.4863,-2.489,-2.4826,-2.4904,-2.4908,-2.4912,-2.4983,-2.4994,-2.5003,0,0,0,0,0,-2.4998,-2.5033,-2.5012,-2.501,-2.4991,-2.4993,-2.499,-2.4953,-2.4924,-2.4939,-2.4915,-2.4879,-2.4888,-2.4865,-2.4864,-2.4892,-2.4902,-2.4907,-2.4912,-2.4979,-2.4992,-2.5003,0,0,0,0,0,0,-2.5069,-2.5028,-2.5004,-2.5029,-2.5015,-2.498,-2.4998,-2.4968,-2.4961,-2.4955,-2.4909,-2.4903,-2.4926,-2.4911,-2.4886,-2.4932,-2.489,-2.4895,-2.4941,-2.4953,-2.4963,-2.4966,-2.4826,0,0,0,0,0,-2.5088,-2.5093,-2.5056,-2.5082,-2.5077,-2.5039,-2.5038,-2.5011,-2.4995,-2.4988,-2.4965,-2.495,-2.495,-2.4951,-2.4948,-2.4981,-2.4974,-2.5,-2.501,-2.5018,-2.5023,-2.5041,-2.5052,-2.493,-2.493,-2.493,0,0,-2.5127,-2.5105,-2.511,-2.5096,-2.5082,-2.5088,-2.5034,-2.5043,-2.5047,-2.4989,-2.5004,-2.4987,-2.4968,-2.4993,-2.5003,-2.4981,-2.5056,-2.5025,-2.5032,-2.5032,-2.5047,-2.5059,-2.5069,-2.4934,-2.4933,-2.4933,0,0,-2.52,-2.5184,-2.5204,-2.5192,-2.5172,-2.5147,-2.5152,-2.5122,-2.5109,-2.5123,-2.508,-2.5085,-2.5085,-2.5073,-2.5068,-2.514,-2.5107,-2.514,-2.5192,-2.521,-2.5219,-2.5228,-2.5254,-2.5264,-2.5145,-2.5146,-2.5146,0,-2.5251,-2.5258,-2.5219,-2.5231,-2.5226,-2.5175,-2.5196,-2.5186,-2.5166,-2.5164,-2.514,-2.514,-2.5123,-2.5146,-2.5164,-2.5161,-2.5166,-2.5143,-2.5221,-2.5229,-2.5236,-2.5261,-2.5271,-2.515,-2.5149,-2.5149,-2.5148,0,-2.5322,-2.5328,-2.5347,-2.533,-2.5328,-2.5344,-2.5308,-2.531,-2.5284,-2.5262,-2.5278,-2.5257,-2.525,-2.5253,-2.5227,-2.5273,-2.526,-2.523,-2.5186,-2.5253,-2.5275,-2.5285,-2.5156,-2.5154,-2.5153,-2.5152,0,0,-2.5438,-2.54,-2.5408,-2.54,-2.5375,-2.5379,-2.5394,-2.5387,-2.5391,-2.5379,-2.5391,-2.5393,-2.5365,-2.5359,-2.5331,-2.5347,-2.5407,-2.5314,-2.5313,-2.5333,-2.5458,-2.5481,-2.5493,-2.5386,-2.5387,-2.5389,-2.546,0,-2.5506,-2.5529,-2.5495,-2.5525,-2.5531,-2.5484,-2.5497,-2.5484,-2.5464,-2.5467,-2.5445,-2.5448,-2.541,-2.5406,-2.542,-2.5397,-2.5432,-2.5391,-2.5397,-2.5397,-2.5403,-2.5504,-2.5529,-2.5597,-2.5468,-2.5469,-2.547,0,-2.5588,-2.5582,-2.5613,-2.5588,-2.5589,-2.5602,-2.5594,-2.5597,-2.5581,-2.5566,-2.556,-2.5528,-2.5542,-2.5501,-2.5519,-2.5493,-2.5493,-2.5483,-2.5485,-2.5483,-2.5438,-2.5506,-2.5617,-2.5628,-2.5484,-2.5483,-2.5482,0,-2.567,-2.5669,-2.5689,-2.5683,-2.5654,-2.5664,-2.5652,-2.5635,-2.5634,-2.5627,-2.5626,-2.5622,-2.5619,-2.5617,-2.5585,-2.5558,-2.5608,-2.5564,-2.5596,-2.5597,-2.5608,-2.5608,-2.5721,-2.5609,-2.5609,-2.5609,-2.5608,0,-2.575,-2.5771,-2.5725,-2.5737,-2.576,-2.5721,-2.5745,-2.5729,-2.5714,-2.5723,-2.5682,-2.569,-2.5648,-2.5652,-2.5628,-2.5648,-2.5647,-2.5635,-2.5628,-2.5639,-2.564,-2.5638,-2.5633,-2.5611,-2.5611,-2.561,-2.561,0,-2.5845,-2.5815,-2.5833,-2.5804,-2.5798,-2.5816,-2.5792,-2.5802,-2.5781,-2.5792,-2.5793,-2.5759,-2.5763,-2.5731,-2.5728,-2.5711,-2.5743,-2.5728,-2.5749,-2.5744,-2.5778,-2.5776,-2.5894,-2.5908,-2.5787,-2.5788,-2.5789,0,-2.5898,-2.5913,-2.5887,-2.589,-2.588,-2.5885,-2.5885,-2.5848,-2.5849,-2.5834,-2.5846,-2.5846,-2.5844,-2.5852,-2.5828,-2.5826,-2.5811,-2.5853,-2.581,-2.5821,-2.5812,-2.5812,-2.5813,-2.5861,-2.5863,-2.5864,-2.5865,0,-2.5995,-2.598,-2.598,-2.5976,-2.5976,-2.5971,-2.5963,-2.5968,-2.5928,-2.5932,-2.5935,-2.5934,-2.5932,-2.5933,-2.5927,-2.5915,-2.5884,-2.5879,-2.5886,-2.5897,-2.5909,-2.5903,-2.5773,-2.5876,-2.5875,-2.5874,-2.5873,-2.5873,-2.607,-2.6082,-2.6066,-2.6069,-2.6059,-2.6054,-2.6062,-2.6043,-2.6045,-2.6041,-2.6019,-2.6027,-2.6013,-2.6001,-2.5993,-2.5999,-2.5979,-2.5989,-2.5992,-2.5995,-2.6002,-2.5908,-2.5998,-2.5997,-2.5997,-2.5997,-2.5996,0,-2.6166,-2.6154,-2.6156,-2.6147,-2.615,-2.6121,-2.6111,-2.6115,-2.6122,-2.6112,-2.6111,-2.6116,-2.6118,-2.6095,-2.6093,-2.6103,-2.6089,-2.6104,-2.6103,-2.6101,-2.602,-2.6014,-2.6115,-2.6115,-2.6115,-2.6115,-2.6115,-2.6115,-2.6215,-2.6235,-2.6219,-2.6234,-2.6221,-2.6229,-2.6226,-2.6221,-2.6213,-2.622,-2.6221,-2.6206,-2.6191,-2.6189,-2.6189,-2.6183,-2.6184,-2.6205,-2.6193,-2.6118,-2.6106,-2.6095,-2.6089,-2.6205,-2.6205,-2.6273,-2.6274,-2.6275]},{"header":{"parameterUnit":"m.s-1","parameterCategory":1,"la1":30.2991,"la2":30.254,"lo1":-89.0895,"lo2":-89.0444,"dy":0.0017,"dx":0.0017,"nx":28,"ny":28,"refTime":"2025-06-21T21:00:00:Z","depth":0,"parameterNumber":3,"parameterNumberName":"V-component_of_WINDS"},"data":[0,0,0,0,0,0,0,0,0,0,0,0,0,0,0,0,0,0,0,0,0,0,0,0,0,0,0,0,0,0,0,0,0,0,0,0,0,0,0,0,0,0,0,0,0,0,0,0,0,0,0,0,0,0,0,0,0,0,1.4647,1.4646,0,1.4621,1.4621,1.4621,1.4656,1.4658,1.4659,1.466,1.463,1.4628,1.4626,0,0,0,0,0,0,0,0,0,0,0,0,0,1.4722,1.4721,1.4647,1.4646,1.4646,1.4622,1.4621,1.4621,1.4656,1.4658,1.4659,1.4661,1.4631,1.4628,1.4626,0,0,0,0,0,0,0,0,0,0,0,0,0,1.4692,1.472,1.4647,1.4661,1.4662,1.4622,1.4621,1.4621,1.4656,1.4658,1.466,1.4661,1.4631,1.4628,1.4626,1.4569,0,0,1.4616,1.4615,0,0,0,0,0,0,0,0,1.4694,1.469,1.4659,1.466,1.4661,1.4644,1.4637,1.4603,1.4655,1.4658,1.466,1.4662,1.4633,1.463,1.4621,1.4567,1.4566,1.4616,1.4614,1.4613,1.4612,0,0,0,0,0,0,0,1.4696,1.4691,1.4637,1.4659,1.466,1.4667,1.4665,1.4631,1.4635,1.4658,1.466,1.4657,1.4634,1.4624,1.462,1.4566,1.4616,1.4614,1.4612,1.4611,1.4464,1.4462,0,0,0,0,0,0,1.4697,1.4692,1.4637,1.4636,1.4683,1.4664,1.4662,1.4647,1.4635,1.4635,1.4656,1.4659,1.4628,1.4624,1.4619,1.4551,1.4613,1.461,1.4609,1.4466,1.4464,1.4462,0,0,0,0,0,0,1.4698,1.4692,1.4638,1.4665,1.4659,1.4661,1.4644,1.4646,1.4636,1.4634,1.4634,1.4645,1.4629,1.4624,1.4581,1.4551,1.4609,1.4606,1.4469,1.4466,1.4463,1.4415,0,0,0,0,0,0,1.47,1.4692,1.4671,1.4664,1.4657,1.4601,1.4643,1.4644,1.4631,1.4635,1.4624,1.4623,1.463,1.4586,1.4578,1.4548,1.4604,1.4471,1.4467,1.4464,1.4419,1.4411,1.4404,0,0,0,0,0,1.4703,1.4658,1.467,1.4663,1.4631,1.46,1.4596,1.4605,1.4629,1.4607,1.4606,1.4624,1.4556,1.4581,1.4573,1.4541,1.4473,1.4469,1.4464,1.4423,1.4413,1.4404,0,0,0,0,0,0,1.4659,1.4657,1.467,1.4622,1.4611,1.4606,1.4579,1.4594,1.4575,1.458,1.4592,1.4589,1.4543,1.4539,1.4566,1.4486,1.4518,1.4512,1.449,1.448,1.4472,1.4473,1.4601,0,0,0,0,0,1.4645,1.462,1.4619,1.4577,1.4571,1.4576,1.4562,1.4571,1.456,1.4555,1.455,1.4537,1.4513,1.4497,1.4474,1.442,1.4417,1.4394,1.4386,1.438,1.4373,1.4343,1.4332,1.4446,1.4446,1.4446,0,0,1.4613,1.4609,1.4592,1.4568,1.456,1.4534,1.4571,1.4542,1.4522,1.455,1.451,1.4506,1.4493,1.4444,1.4422,1.4438,1.4342,1.4374,1.4369,1.4365,1.4337,1.4326,1.4317,1.4443,1.4443,1.4444,0,0,1.4541,1.4536,1.45,1.4492,1.4481,1.4485,1.4476,1.4469,1.4468,1.4429,1.4449,1.4425,1.4384,1.4373,1.4362,1.4288,1.4303,1.428,1.4237,1.4208,1.4199,1.4191,1.4163,1.4153,1.4274,1.4274,1.4274,0,1.4502,1.4464,1.4478,1.4447,1.4436,1.4462,1.4425,1.4416,1.4398,1.4388,1.4408,1.4356,1.4349,1.4298,1.428,1.4271,1.426,1.428,1.4199,1.4192,1.4184,1.4158,1.4147,1.4271,1.4272,1.4272,1.4272,0,1.4416,1.4389,1.4361,1.4344,1.433,1.4295,1.4304,1.4287,1.4298,1.43,1.4259,1.4252,1.4228,1.4217,1.4227,1.4167,1.4177,1.4198,1.423,1.417,1.4145,1.4135,1.4267,1.4268,1.4269,1.427,0,0,1.4313,1.4306,1.4295,1.4288,1.4278,1.4257,1.4225,1.4203,1.4188,1.4175,1.4146,1.4112,1.4131,1.4119,1.4128,1.4102,1.4042,1.4126,1.4126,1.4109,1.3974,1.3957,1.3945,1.4054,1.4052,1.405,1.3975,0,1.424,1.4184,1.4197,1.4141,1.4116,1.4142,1.4113,1.4104,1.4105,1.4083,1.4084,1.4058,1.4087,1.4079,1.4056,1.4054,1.4015,1.406,1.4025,1.4024,1.4025,1.3932,1.3914,1.3843,1.3965,1.3964,1.3963,0,1.4146,1.4131,1.4073,1.4068,1.4058,1.4032,1.4013,1.3993,1.3983,1.3985,1.3972,1.3987,1.3953,1.3989,1.3941,1.3972,1.3959,1.3957,1.3954,1.3949,1.3988,1.3923,1.3821,1.3809,1.3948,1.3949,1.395,0,1.4074,1.404,1.4001,1.3994,1.3987,1.3968,1.3964,1.3956,1.3943,1.3927,1.3918,1.3898,1.3886,1.3869,1.3877,1.3903,1.3828,1.3865,1.3828,1.3827,1.3808,1.3809,1.3701,1.3804,1.3804,1.3804,1.3805,0,1.399,1.3953,1.3968,1.3944,1.3903,1.3918,1.3877,1.3876,1.3869,1.3844,1.3866,1.3842,1.3855,1.3832,1.3838,1.3798,1.3793,1.3793,1.3794,1.3789,1.3789,1.3779,1.3783,1.3802,1.3802,1.3803,1.3803,0,1.3901,1.3911,1.3869,1.3868,1.3866,1.3836,1.3834,1.3811,1.3815,1.3783,1.3776,1.3781,1.3755,1.3763,1.3734,1.3738,1.3686,1.3695,1.369,1.3691,1.3653,1.3656,1.3532,1.3516,1.3632,1.3631,1.363,0,1.3845,1.3818,1.3814,1.3799,1.3794,1.3771,1.3757,1.3772,1.3757,1.3744,1.3722,1.3698,1.368,1.3637,1.3637,1.3615,1.3622,1.3581,1.3619,1.3615,1.3619,1.362,1.3617,1.3572,1.3571,1.357,1.3569,0,1.3745,1.3751,1.3732,1.3714,1.3698,1.3684,1.3673,1.3659,1.3673,1.3655,1.363,1.3615,1.3587,1.3562,1.3543,1.3538,1.3555,1.3558,1.3547,1.3541,1.3538,1.3537,1.3666,1.3559,1.356,1.3561,1.3562,1.3562,1.3669,1.3646,1.3639,1.3617,1.361,1.3599,1.3577,1.3579,1.3559,1.3537,1.3547,1.3517,1.3508,1.3484,1.3477,1.3453,1.3468,1.3454,1.345,1.3446,1.344,1.3544,1.345,1.345,1.345,1.345,1.3451,0,1.3568,1.3565,1.3545,1.3529,1.3511,1.3532,1.352,1.3503,1.3477,1.3468,1.345,1.342,1.3397,1.3397,1.3375,1.3356,1.3363,1.3349,1.3349,1.3348,1.3428,1.3438,1.3344,1.3344,1.3344,1.3344,1.3344,1.3344,1.3512,1.3473,1.3479,1.3437,1.3435,1.3407,1.3398,1.3388,1.3381,1.3347,1.3328,1.3329,1.3323,1.3301,1.3281,1.3281,1.3271,1.3254,1.3257,1.3332,1.3342,1.3352,1.3361,1.3252,1.3252,1.3178,1.3177,1.3177]}]]